SBIRS GEO-2 (USA 241)

Last updated on Mon Oct 20 2025 00:02:47 GMT+0000 (Coordinated Universal Time)

1 39120U 13011A 25292.25743716 -.00000286 00000+0 00000+0 0 9991 2 39120 3.9687 51.9451 0002002 162.6527 216.2852 1.00271559 46127
UTC large
Height (km)
Speed (km/s)
/
Latitude / Longitude
Inclination (degrees)
Orbital Period (minutes)
Azimuth
Elevation
Range (km)
Doppler Factor

Next 0 passes for location: London (51.5072 / 0.1276)

Sorry there are no passes over London.